Time,TemperatureF,DewpointF,PressureIn,WindDirection,WindDirectionDegrees,WindSpeedMPH,WindSpeedGustMPH,Humidity,HourlyPrecipIn,Conditions,Clouds,dailyrainin,SoftwareType,DateUTC
2013-01-30 00:01:00,56.7,51.6,29.70,SW,223,3.0,16.0,83,0.00,,,0.10,meteohub,2013-01-30 05:01:00,
2013-01-30 00:03:00,56.7,51.3,29.70,SSW,212,4.0,16.0,82,0.00,,,0.10,meteohub,2013-01-30 05:03:00,
2013-01-30 00:04:00,56.7,51.6,29.69,SSE,159,3.0,16.0,83,0.00,,,0.10,meteohub,2013-01-30 05:04:00,
2013-01-30 00:05:00,56.7,51.6,29.69,SW,225,5.0,16.0,83,0.00,,,0.00,meteohub,2013-01-30 05:05:00,
2013-01-30 00:10:00,56.8,51.8,29.69,WSW,250,4.0,14.0,83,0.00,,,0.00,meteohub,2013-01-30 05:10:00,
2013-01-30 00:16:00,56.8,51.8,29.69,West,272,2.0,14.0,83,0.00,,,0.00,meteohub,2013-01-30 05:16:00,
2013-01-30 00:21:00,57.0,52.0,29.68,SSW,192,0.0,13.0,83,0.00,,,0.00,meteohub,2013-01-30 05:21:00,
2013-01-30 00:26:00,57.0,52.0,29.68,SW,215,5.0,13.0,83,0.00,,,0.00,meteohub,2013-01-30 05:26:00,
2013-01-30 00:31:00,57.2,52.3,29.67,SW,227,4.0,13.0,84,0.00,,,0.00,meteohub,2013-01-30 05:31:00,
2013-01-30 00:36:00,57.4,52.5,29.67,ESE,123,2.0,9.0,84,0.00,,,0.00,meteohub,2013-01-30 05:36:00,
2013-01-30 00:41:00,57.4,52.5,29.67,WSW,240,3.0,12.0,84,0.00,,,0.00,meteohub,2013-01-30 05:41:00,
2013-01-30 00:46:00,57.4,52.5,29.66,SW,236,2.0,12.0,84,0.00,,,0.00,meteohub,2013-01-30 05:46:00,
2013-01-30 00:52:00,57.6,52.7,29.66,SSW,213,7.0,12.0,84,0.00,,,0.00,meteohub,2013-01-30 05:52:00,
2013-01-30 00:57:00,57.9,53.1,29.66,SSW,205,5.0,14.0,84,0.00,,,0.00,meteohub,2013-01-30 05:57:00,
2013-01-30 01:02:00,58.3,53.1,29.65,WSW,243,5.0,14.0,83,0.00,,,0.00,meteohub,2013-01-30 06:02:00,
2013-01-30 01:07:00,58.5,53.2,29.64,West,281,3.0,15.0,83,0.00,,,0.00,meteohub,2013-01-30 06:07:00,
2013-01-30 01:12:00,58.6,53.4,29.64,WSW,239,3.0,15.0,83,0.00,,,0.00,meteohub,2013-01-30 06:12:00,
2013-01-30 01:17:00,58.6,53.4,29.64,WSW,254,5.0,15.0,83,0.00,,,0.00,meteohub,2013-01-30 06:17:00,
2013-01-30 01:22:00,59.0,53.6,29.64,NW,306,5.0,15.0,82,0.00,,,0.00,meteohub,2013-01-30 06:22:00,
2013-01-30 01:27:00,59.2,53.6,29.64,West,271,7.0,15.0,82,0.00,,,0.00,meteohub,2013-01-30 06:27:00,
2013-01-30 01:32:00,59.0,53.6,29.63,SW,219,4.0,15.0,82,0.00,,,0.00,meteohub,2013-01-30 06:32:00,
2013-01-30 01:37:00,59.0,53.8,29.62,SW,226,13.0,15.0,83,0.00,,,0.00,meteohub,2013-01-30 06:37:00,
2013-01-30 01:42:00,58.8,53.6,29.62,WSW,245,7.0,14.0,83,0.00,,,0.00,meteohub,2013-01-30 06:42:00,
2013-01-30 01:47:00,59.0,53.8,29.62,NW,306,4.0,14.0,83,0.00,,,0.00,meteohub,2013-01-30 06:47:00,
2013-01-30 01:52:00,59.2,53.6,29.62,NW,306,3.0,14.0,82,0.00,,,0.00,meteohub,2013-01-30 06:52:00,
2013-01-30 01:58:00,59.2,54.0,29.61,WSW,243,3.0,15.0,83,0.00,,,0.00,meteohub,2013-01-30 06:58:00,
2013-01-30 02:03:00,59.2,53.6,29.61,West,261,8.0,15.0,82,0.00,,,0.00,meteohub,2013-01-30 07:03:00,
2013-01-30 02:08:00,59.2,53.6,29.61,SW,225,8.0,12.0,82,0.00,,,0.00,meteohub,2013-01-30 07:08:00,
2013-01-30 02:13:00,59.4,53.8,29.61,SW,227,8.0,12.0,82,0.00,,,0.00,meteohub,2013-01-30 07:13:00,
2013-01-30 02:18:00,59.4,53.8,29.61,SW,230,3.0,18.0,82,0.00,,,0.00,meteohub,2013-01-30 07:18:00,
2013-01-30 02:23:00,59.4,53.8,29.61,WSW,252,6.0,18.0,82,0.00,,,0.00,meteohub,2013-01-30 07:23:00,
2013-01-30 02:28:00,59.5,53.8,29.60,South,171,16.0,21.0,81,0.00,,,0.00,meteohub,2013-01-30 07:28:00,
2013-01-30 02:33:00,59.7,54.0,29.60,West,259,5.0,21.0,81,0.00,,,0.00,meteohub,2013-01-30 07:33:00,
2013-01-30 02:38:00,59.5,53.8,29.59,SW,217,3.0,21.0,81,0.00,,,0.00,meteohub,2013-01-30 07:38:00,
2013-01-30 02:44:00,59.5,53.8,29.59,West,267,6.0,16.0,81,0.00,,,0.00,meteohub,2013-01-30 07:44:00,
2013-01-30 02:49:00,59.5,53.4,29.58,West,271,2.0,15.0,80,0.00,,,0.00,meteohub,2013-01-30 07:49:00,
2013-01-30 02:54:00,59.4,53.2,29.58,WSW,255,7.0,20.0,80,0.00,,,0.00,meteohub,2013-01-30 07:54:00,
2013-01-30 02:59:00,59.4,53.2,29.57,WSW,242,9.0,20.0,80,0.00,,,0.00,meteohub,2013-01-30 07:59:00,
2013-01-30 03:04:00,59.4,53.2,29.57,SSE,168,4.0,20.0,80,0.00,,,0.00,meteohub,2013-01-30 08:04:00,
2013-01-30 03:09:00,59.4,52.9,29.56,WSW,253,10.0,14.0,79,0.00,,,0.00,meteohub,2013-01-30 08:09:00,
2013-01-30 03:14:00,59.4,52.9,29.55,NW,325,2.0,18.0,79,0.00,,,0.00,meteohub,2013-01-30 08:14:00,
2013-01-30 03:19:00,59.4,52.9,29.55,SW,215,6.0,18.0,79,0.00,,,0.00,meteohub,2013-01-30 08:19:00,
2013-01-30 03:24:00,59.4,52.5,29.55,WSW,253,5.0,18.0,78,0.00,,,0.00,meteohub,2013-01-30 08:24:00,
2013-01-30 03:29:00,59.5,52.3,29.55,WSW,254,2.0,17.0,77,0.00,,,0.00,meteohub,2013-01-30 08:29:00,
2013-01-30 03:35:00,59.4,52.5,29.55,West,267,3.0,18.0,78,0.00,,,0.00,meteohub,2013-01-30 08:35:00,
2013-01-30 03:40:00,59.2,52.3,29.54,West,262,5.0,18.0,78,0.00,,,0.00,meteohub,2013-01-30 08:40:00,
2013-01-30 03:45:00,58.8,52.0,29.53,SW,214,13.0,18.0,78,0.00,,,0.00,meteohub,2013-01-30 08:45:00,
2013-01-30 03:50:00,58.8,52.0,29.53,SW,221,5.0,15.0,78,0.00,,,0.00,meteohub,2013-01-30 08:50:00,
2013-01-30 03:55:00,58.6,52.2,29.53,SW,234,5.0,15.0,79,0.00,,,0.00,meteohub,2013-01-30 08:55:00,
2013-01-30 04:00:00,58.5,51.6,29.52,WSW,257,2.0,14.0,78,0.00,,,0.00,meteohub,2013-01-30 09:00:00,
2013-01-30 04:05:00,58.3,51.4,29.52,SW,232,6.0,15.0,78,0.00,,,0.00,meteohub,2013-01-30 09:05:00,
2013-01-30 04:10:00,58.1,51.6,29.52,SSW,201,0.0,15.0,79,0.00,,,0.00,meteohub,2013-01-30 09:10:00,
2013-01-30 04:16:00,57.9,51.4,29.51,SSW,192,7.0,14.0,79,0.00,,,0.00,meteohub,2013-01-30 09:16:00,
2013-01-30 04:21:00,57.7,51.3,29.51,NW,318,3.0,14.0,79,0.00,,,0.00,meteohub,2013-01-30 09:21:00,
2013-01-30 04:26:00,57.7,51.3,29.51,SSW,209,6.0,14.0,79,0.00,,,0.00,meteohub,2013-01-30 09:26:00,
2013-01-30 04:31:00,57.9,51.4,29.50,SSW,210,7.0,14.0,79,0.00,,,0.00,meteohub,2013-01-30 09:31:00,
2013-01-30 04:36:00,58.1,51.3,29.50,SW,216,8.0,12.0,78,0.00,,,0.00,meteohub,2013-01-30 09:36:00,
2013-01-30 04:41:00,57.9,51.1,29.49,SW,229,5.0,14.0,78,0.00,,,0.00,meteohub,2013-01-30 09:41:00,
2013-01-30 04:46:00,57.9,51.1,29.49,West,273,5.0,14.0,78,0.00,,,0.00,meteohub,2013-01-30 09:46:00,
2013-01-30 04:51:00,57.9,50.7,29.49,WSW,248,8.0,14.0,77,0.00,,,0.00,meteohub,2013-01-30 09:51:00,
2013-01-30 04:56:00,57.7,50.5,29.49,SW,221,8.0,14.0,77,0.00,,,0.00,meteohub,2013-01-30 09:56:00,
2013-01-30 05:01:00,57.7,50.5,29.49,South,190,5.0,16.0,77,0.00,,,0.00,meteohub,2013-01-30 10:01:00,
2013-01-30 05:07:00,57.7,50.5,29.48,SSW,207,8.0,16.0,77,0.00,,,0.00,meteohub,2013-01-30 10:07:00,
2013-01-30 05:12:00,57.6,50.4,29.48,SSW,213,7.0,16.0,77,0.00,,,0.00,meteohub,2013-01-30 10:12:00,
2013-01-30 05:17:00,57.6,50.7,29.48,SSW,213,9.0,15.0,78,0.00,,,0.00,meteohub,2013-01-30 10:17:00,
2013-01-30 05:22:00,57.4,50.5,29.48,West,275,6.0,15.0,78,0.00,,,0.00,meteohub,2013-01-30 10:22:00,
2013-01-30 05:27:00,57.4,50.5,29.47,SW,218,11.0,15.0,78,0.00,,,0.00,meteohub,2013-01-30 10:27:00,
2013-01-30 05:32:00,57.4,50.5,29.48,WSW,254,6.0,14.0,78,0.00,,,0.00,meteohub,2013-01-30 10:32:00,
2013-01-30 05:37:00,57.4,50.5,29.47,SW,225,7.0,14.0,78,0.00,,,0.00,meteohub,2013-01-30 10:37:00,
2013-01-30 05:42:00,57.4,50.5,29.46,WSW,250,10.0,14.0,78,0.00,,,0.00,meteohub,2013-01-30 10:42:00,
2013-01-30 05:47:00,57.4,50.5,29.47,WSW,253,4.0,12.0,78,0.00,,,0.00,meteohub,2013-01-30 10:47:00,
2013-01-30 05:52:00,57.4,50.5,29.47,SW,219,2.0,18.0,78,0.00,,,0.00,meteohub,2013-01-30 10:52:00,
2013-01-30 05:57:00,57.4,50.5,29.46,SW,217,3.0,18.0,78,0.00,,,0.00,meteohub,2013-01-30 10:57:00,
2013-01-30 06:02:00,57.4,50.5,29.46,SW,220,4.0,12.0,78,0.00,,,0.00,meteohub,2013-01-30 11:02:00,
2013-01-30 06:07:00,57.4,50.5,29.46,WSW,242,2.0,16.0,78,0.00,,,0.00,meteohub,2013-01-30 11:07:00,
2013-01-30 06:12:00,57.6,50.7,29.45,WSW,242,2.0,16.0,78,0.00,,,0.00,meteohub,2013-01-30 11:12:00,
2013-01-30 06:17:00,57.6,50.7,29.44,WSW,252,5.0,12.0,78,0.00,,,0.00,meteohub,2013-01-30 11:17:00,
2013-01-30 06:22:00,57.6,50.7,29.44,SSW,205,3.0,12.0,78,0.00,,,0.00,meteohub,2013-01-30 11:22:00,
2013-01-30 06:27:00,57.6,50.7,29.44,WSW,254,4.0,14.0,78,0.00,,,0.00,meteohub,2013-01-30 11:27:00,
2013-01-30 06:32:00,57.6,50.7,29.43,South,184,6.0,14.0,78,0.00,,,0.00,meteohub,2013-01-30 11:32:00,
2013-01-30 06:37:00,57.6,50.7,29.43,SW,219,3.0,12.0,78,0.00,,,0.00,meteohub,2013-01-30 11:37:00,
2013-01-30 06:42:00,57.6,50.7,29.43,SW,231,2.0,12.0,78,0.00,,,0.00,meteohub,2013-01-30 11:42:00,
2013-01-30 06:47:00,57.7,50.9,29.42,SW,219,7.0,12.0,78,0.00,,,0.00,meteohub,2013-01-30 11:47:00,
2013-01-30 06:52:00,57.6,50.7,29.42,SW,224,5.0,12.0,78,0.00,,,0.00,meteohub,2013-01-30 11:52:00,
2013-01-30 06:57:00,57.4,50.5,29.42,South,179,3.0,12.0,78,0.00,,,0.00,meteohub,2013-01-30 11:57:00,
2013-01-30 07:02:00,57.4,50.9,29.42,SW,214,5.0,12.0,79,0.00,,,0.00,meteohub,2013-01-30 12:02:00,
2013-01-30 07:07:00,57.4,50.9,29.41,SSW,198,4.0,13.0,79,0.00,,,0.00,meteohub,2013-01-30 12:07:00,
2013-01-30 07:12:00,57.4,50.9,29.41,SW,228,10.0,13.0,79,0.00,,,0.00,meteohub,2013-01-30 12:12:00,
2013-01-30 07:17:00,57.4,50.9,29.40,SSW,213,8.0,14.0,79,0.00,,,0.00,meteohub,2013-01-30 12:17:00,
2013-01-30 07:22:00,57.4,50.9,29.40,SW,229,2.0,15.0,79,0.00,,,0.00,meteohub,2013-01-30 12:22:00,
2013-01-30 07:27:00,57.4,50.9,29.39,SW,231,2.0,15.0,79,0.00,,,0.00,meteohub,2013-01-30 12:27:00,
2013-01-30 07:32:00,57.4,51.3,29.39,WSW,257,4.0,15.0,80,0.00,,,0.00,meteohub,2013-01-30 12:32:00,
2013-01-30 07:37:00,57.6,51.1,29.39,SW,214,5.0,17.0,79,0.00,,,0.00,meteohub,2013-01-30 12:37:00,
2013-01-30 07:42:00,57.7,51.3,29.38,SSW,207,5.0,17.0,79,0.00,,,0.00,meteohub,2013-01-30 12:42:00,
2013-01-30 07:47:00,57.9,51.4,29.38,SW,229,5.0,17.0,79,0.00,,,0.00,meteohub,2013-01-30 12:47:00,
2013-01-30 07:52:00,57.9,51.4,29.37,WSW,255,8.0,15.0,79,0.00,,,0.00,meteohub,2013-01-30 12:52:00,
2013-01-30 07:57:00,57.9,51.8,29.36,SW,235,8.0,15.0,80,0.00,,,0.00,meteohub,2013-01-30 12:57:00,
2013-01-30 08:02:00,58.1,51.6,29.36,SW,223,2.0,15.0,79,0.00,,,0.00,meteohub,2013-01-30 13:02:00,
2013-01-30 08:07:00,58.1,52.0,29.37,WSW,252,7.0,13.0,80,0.00,,,0.00,meteohub,2013-01-30 13:07:00,
2013-01-30 08:12:00,57.9,52.5,29.36,WSW,240,5.0,11.0,82,0.01,,,0.01,meteohub,2013-01-30 13:12:00,
2013-01-30 08:17:00,57.6,52.7,29.36,SSW,206,7.0,13.0,84,0.01,,,0.01,meteohub,2013-01-30 13:17:00,
2013-01-30 08:22:00,57.4,52.9,29.36,SW,230,6.0,13.0,85,0.02,,,0.02,meteohub,2013-01-30 13:22:00,
2013-01-30 08:27:00,57.0,52.9,29.35,WSW,238,5.0,13.0,86,0.02,,,0.02,meteohub,2013-01-30 13:27:00,
2013-01-30 08:32:00,56.8,53.1,29.35,SW,218,5.0,13.0,87,0.03,,,0.03,meteohub,2013-01-30 13:32:00,
2013-01-30 08:37:00,56.7,53.1,29.35,SW,219,6.0,12.0,88,0.04,,,0.04,meteohub,2013-01-30 13:37:00,
2013-01-30 08:42:00,56.5,53.2,29.35,SW,218,8.0,12.0,89,0.04,,,0.04,meteohub,2013-01-30 13:42:00,
2013-01-30 08:47:00,56.7,53.8,29.39,NW,318,6.0,11.0,90,0.05,,,0.05,meteohub,2013-01-30 13:47:00,
2013-01-30 08:52:00,56.7,54.1,29.42,NNW,329,13.0,14.0,91,0.05,,,0.05,meteohub,2013-01-30 13:52:00,
2013-01-30 08:57:00,56.5,54.5,29.43,NNW,328,5.0,16.0,93,0.17,,,0.17,meteohub,2013-01-30 13:57:00,
2013-01-30 09:02:00,56.5,54.5,29.43,NNW,329,4.0,16.0,93,0.20,,,0.20,meteohub,2013-01-30 14:02:00,
2013-01-30 09:07:00,56.1,54.5,29.43,NW,323,5.0,16.0,94,0.21,,,0.21,meteohub,2013-01-30 14:07:00,
2013-01-30 09:12:00,56.1,54.5,29.43,NNW,330,12.0,14.0,94,0.20,,,0.21,meteohub,2013-01-30 14:12:00,
2013-01-30 09:17:00,55.9,54.0,29.44,NW,315,9.0,14.0,93,0.21,,,0.22,meteohub,2013-01-30 14:17:00,
2013-01-30 09:22:00,55.8,53.8,29.43,NNW,340,6.0,18.0,93,0.20,,,0.22,meteohub,2013-01-30 14:22:00,
2013-01-30 09:27:00,55.6,53.6,29.43,NW,320,7.0,18.0,93,0.19,,,0.22,meteohub,2013-01-30 14:27:00,
2013-01-30 09:32:00,55.2,53.2,29.43,NW,319,4.0,18.0,93,0.19,,,0.22,meteohub,2013-01-30 14:32:00,
2013-01-30 09:37:00,55.2,53.2,29.44,NW,317,4.0,12.0,93,0.18,,,0.22,meteohub,2013-01-30 14:37:00,
2013-01-30 09:42:00,55.0,53.1,29.44,NW,316,3.0,12.0,93,0.17,,,0.22,meteohub,2013-01-30 14:42:00,
2013-01-30 09:47:00,55.0,53.1,29.44,West,264,6.0,8.0,93,0.17,,,0.22,meteohub,2013-01-30 14:47:00,
2013-01-30 09:52:00,54.9,53.2,29.44,WNW,296,3.0,8.0,94,0.12,,,0.22,meteohub,2013-01-30 14:52:00,
2013-01-30 09:57:00,54.9,52.9,29.44,NW,319,6.0,8.0,93,0.03,,,0.22,meteohub,2013-01-30 14:57:00,
2013-01-30 10:02:00,54.7,52.7,29.45,West,275,7.0,10.0,93,0.02,,,0.23,meteohub,2013-01-30 15:02:00,
2013-01-30 10:07:00,54.7,52.7,29.44,SW,217,4.0,10.0,93,0.02,,,0.23,meteohub,2013-01-30 15:07:00,
2013-01-30 10:12:00,54.5,52.5,29.44,West,276,3.0,10.0,93,0.01,,,0.23,meteohub,2013-01-30 15:12:00,
2013-01-30 10:18:00,54.5,52.5,29.43,SW,234,3.0,11.0,93,0.02,,,0.24,meteohub,2013-01-30 15:18:00,
2013-01-30 10:23:00,54.3,52.3,29.41,SW,222,2.0,11.0,93,0.03,,,0.25,meteohub,2013-01-30 15:23:00,
2013-01-30 10:28:00,54.1,52.2,29.40,SW,227,2.0,11.0,93,0.03,,,0.25,meteohub,2013-01-30 15:28:00,
2013-01-30 10:33:00,54.1,52.5,29.42,WNW,297,4.0,7.0,94,0.03,,,0.25,meteohub,2013-01-30 15:33:00,
2013-01-30 10:38:00,54.1,52.5,29.42,WSW,243,4.0,6.0,94,0.03,,,0.25,meteohub,2013-01-30 15:38:00,
2013-01-30 10:43:00,54.1,52.5,29.42,SW,218,5.0,8.0,94,0.03,,,0.25,meteohub,2013-01-30 15:43:00,
2013-01-30 10:48:00,54.1,52.7,29.40,South,177,2.0,8.0,95,0.04,,,0.26,meteohub,2013-01-30 15:48:00,
2013-01-30 10:53:00,54.1,52.7,29.40,SW,221,2.0,10.0,95,0.04,,,0.26,meteohub,2013-01-30 15:53:00,
2013-01-30 10:58:00,54.1,52.5,29.40,WSW,238,2.0,10.0,94,0.04,,,0.26,meteohub,2013-01-30 15:58:00,
2013-01-30 11:04:00,54.1,52.7,29.40,SSW,201,5.0,10.0,95,0.03,,,0.26,meteohub,2013-01-30 16:04:00,
2013-01-30 11:09:00,54.3,52.9,29.42,West,270,3.0,9.0,95,0.03,,,0.26,meteohub,2013-01-30 16:09:00,
2013-01-30 11:14:00,54.3,52.7,29.42,NW,311,0.0,11.0,94,0.02,,,0.26,meteohub,2013-01-30 16:14:00,
2013-01-30 11:19:00,54.3,52.7,29.42,WNW,287,5.0,11.0,94,0.02,,,0.26,meteohub,2013-01-30 16:19:00,
2013-01-30 11:24:00,54.7,52.7,29.41,WSW,256,5.0,8.0,93,0.01,,,0.26,meteohub,2013-01-30 16:24:00,
2013-01-30 11:29:00,54.9,52.5,29.41,WNW,290,2.0,15.0,92,0.02,,,0.27,meteohub,2013-01-30 16:29:00,
2013-01-30 11:34:00,55.0,52.7,29.40,ENE,77,3.0,15.0,92,0.02,,,0.27,meteohub,2013-01-30 16:34:00,
2013-01-30 11:39:00,55.0,52.5,29.39,WSW,238,3.0,15.0,91,0.02,,,0.27,meteohub,2013-01-30 16:39:00,
2013-01-30 11:44:00,55.2,52.7,29.38,WNW,297,5.0,12.0,91,0.02,,,0.27,meteohub,2013-01-30 16:44:00,
2013-01-30 11:50:00,55.2,52.7,29.37,WNW,294,8.0,19.0,91,0.01,,,0.27,meteohub,2013-01-30 16:50:00,
2013-01-30 11:55:00,55.2,52.3,29.37,WSW,256,4.0,19.0,90,0.01,,,0.27,meteohub,2013-01-30 16:55:00,
2013-01-30 12:00:00,55.4,52.5,29.36,WSW,255,2.0,19.0,90,0.01,,,0.27,meteohub,2013-01-30 17:00:00,
2013-01-30 12:05:00,55.2,52.3,29.37,West,261,7.0,13.0,90,0.01,,,0.27,meteohub,2013-01-30 17:05:00,
2013-01-30 12:10:00,55.4,52.5,29.36,SSW,212,7.0,13.0,90,0.01,,,0.27,meteohub,2013-01-30 17:10:00,
2013-01-30 12:15:00,55.6,52.7,29.37,WSW,254,5.0,13.0,90,0.01,,,0.27,meteohub,2013-01-30 17:15:00,
2013-01-30 12:21:00,55.6,52.3,29.38,SSW,202,5.0,13.0,89,0.01,,,0.27,meteohub,2013-01-30 17:21:00,
2013-01-30 12:26:00,55.6,52.3,29.37,NW,305,5.0,14.0,89,0.00,,,0.27,meteohub,2013-01-30 17:26:00,
2013-01-30 12:31:00,55.4,52.2,29.37,West,269,12.0,23.0,89,0.00,,,0.27,meteohub,2013-01-30 17:31:00,
2013-01-30 12:36:00,55.4,52.2,29.36,SW,217,9.0,23.0,89,0.00,,,0.27,meteohub,2013-01-30 17:36:00,
2013-01-30 12:41:00,55.4,52.2,29.36,SW,227,4.0,22.0,89,0.00,,,0.27,meteohub,2013-01-30 17:41:00,
2013-01-30 12:46:00,55.2,52.0,29.34,SSE,148,10.0,22.0,89,0.00,,,0.27,meteohub,2013-01-30 17:46:00,
2013-01-30 12:51:00,55.0,52.2,29.34,West,278,8.0,22.0,90,0.00,,,0.27,meteohub,2013-01-30 17:51:00,
2013-01-30 12:56:00,55.2,52.3,29.33,SSW,204,7.0,15.0,90,0.00,,,0.27,meteohub,2013-01-30 17:56:00,
2013-01-30 13:01:00,55.2,52.0,29.32,SW,236,9.0,16.0,89,0.00,,,0.27,meteohub,2013-01-30 18:01:00,
2013-01-30 13:06:00,55.4,52.2,29.31,SSW,210,4.0,18.0,89,0.00,,,0.27,meteohub,2013-01-30 18:06:00,
2013-01-30 13:12:00,55.4,52.2,29.32,SW,230,4.0,18.0,89,0.00,,,0.27,meteohub,2013-01-30 18:12:00,
2013-01-30 13:17:00,55.2,52.0,29.33,SW,226,5.0,18.0,89,0.00,,,0.27,meteohub,2013-01-30 18:17:00,
2013-01-30 13:22:00,55.2,52.0,29.31,WSW,244,3.0,16.0,89,0.00,,,0.27,meteohub,2013-01-30 18:22:00,
2013-01-30 13:27:00,55.2,52.0,29.30,SSW,209,5.0,16.0,89,0.00,,,0.27,meteohub,2013-01-30 18:27:00,
2013-01-30 13:32:00,55.2,52.0,29.31,West,270,6.0,18.0,89,0.00,,,0.27,meteohub,2013-01-30 18:32:00,
2013-01-30 13:37:00,55.2,52.0,29.32,SW,227,8.0,18.0,89,0.00,,,0.27,meteohub,2013-01-30 18:37:00,
2013-01-30 13:42:00,55.2,52.0,29.33,West,267,6.0,17.0,89,0.00,,,0.27,meteohub,2013-01-30 18:42:00,
2013-01-30 13:47:00,55.2,51.8,29.33,SW,231,2.0,17.0,88,0.00,,,0.27,meteohub,2013-01-30 18:47:00,
2013-01-30 13:52:00,55.2,51.8,29.33,WSW,240,9.0,14.0,88,0.00,,,0.27,meteohub,2013-01-30 18:52:00,
2013-01-30 13:57:00,55.2,51.8,29.31,West,260,4.0,14.0,88,0.00,,,0.27,meteohub,2013-01-30 18:57:00,
2013-01-30 14:02:00,55.2,51.4,29.31,WSW,254,1.0,11.0,87,0.00,,,0.27,meteohub,2013-01-30 19:02:00,
2013-01-30 14:07:00,55.2,51.4,29.31,West,270,3.0,11.0,87,0.00,,,0.27,meteohub,2013-01-30 19:07:00,
2013-01-30 14:12:00,55.4,51.6,29.33,NNW,340,9.0,11.0,87,0.00,,,0.27,meteohub,2013-01-30 19:12:00,
2013-01-30 14:17:00,55.6,51.4,29.33,SW,215,4.0,13.0,86,0.00,,,0.27,meteohub,2013-01-30 19:17:00,
2013-01-30 14:22:00,55.6,51.1,29.33,WSW,237,0.0,13.0,85,0.00,,,0.27,meteohub,2013-01-30 19:22:00,
2013-01-30 14:27:00,55.8,51.3,29.33,South,190,7.0,21.0,85,0.00,,,0.27,meteohub,2013-01-30 19:27:00,
2013-01-30 14:32:00,55.8,51.3,29.33,WSW,246,5.0,21.0,85,0.00,,,0.27,meteohub,2013-01-30 19:32:00,
2013-01-30 14:37:00,55.8,51.3,29.33,SW,230,2.0,21.0,85,0.00,,,0.27,meteohub,2013-01-30 19:37:00,
2013-01-30 14:42:00,55.8,51.3,29.34,WNW,287,5.0,11.0,85,0.00,,,0.27,meteohub,2013-01-30 19:42:00,
2013-01-30 14:47:00,55.6,51.1,29.34,NW,308,5.0,11.0,85,0.00,,,0.27,meteohub,2013-01-30 19:47:00,
2013-01-30 14:52:00,55.6,50.9,29.34,WNW,283,4.0,11.0,84,0.00,,,0.27,meteohub,2013-01-30 19:52:00,
2013-01-30 14:57:00,55.8,51.1,29.34,West,271,2.0,10.0,84,0.00,,,0.27,meteohub,2013-01-30 19:57:00,
2013-01-30 15:02:00,55.8,51.1,29.34,SW,229,3.0,10.0,84,0.00,,,0.27,meteohub,2013-01-30 20:02:00,
2013-01-30 15:07:00,55.8,50.7,29.34,WNW,291,2.0,14.0,83,0.00,,,0.27,meteohub,2013-01-30 20:07:00,
2013-01-30 15:12:00,55.9,50.9,29.33,NNW,339,11.0,14.0,83,0.00,,,0.27,meteohub,2013-01-30 20:12:00,
2013-01-30 15:17:00,55.9,50.5,29.32,NW,324,3.0,15.0,82,0.00,,,0.27,meteohub,2013-01-30 20:17:00,
2013-01-30 15:22:00,55.9,50.9,29.33,WSW,245,5.0,15.0,83,0.00,,,0.27,meteohub,2013-01-30 20:22:00,
2013-01-30 15:27:00,55.9,50.9,29.31,West,259,3.0,15.0,83,0.00,,,0.27,meteohub,2013-01-30 20:27:00,
2013-01-30 15:32:00,55.8,50.7,29.30,SW,228,1.0,14.0,83,0.00,,,0.27,meteohub,2013-01-30 20:32:00,
2013-01-30 15:37:00,55.8,50.7,29.32,WNW,288,4.0,13.0,83,0.00,,,0.27,meteohub,2013-01-30 20:37:00,
2013-01-30 15:42:00,55.8,50.7,29.32,SW,234,4.0,13.0,83,0.00,,,0.27,meteohub,2013-01-30 20:42:00,
2013-01-30 15:47:00,55.8,50.7,29.31,SW,217,6.0,13.0,83,0.00,,,0.27,meteohub,2013-01-30 20:47:00,
2013-01-30 15:52:00,55.6,50.5,29.32,WSW,252,3.0,14.0,83,0.00,,,0.27,meteohub,2013-01-30 20:52:00,
2013-01-30 15:57:00,55.6,50.9,29.31,West,276,3.0,14.0,84,0.00,,,0.27,meteohub,2013-01-30 20:57:00,
2013-01-30 16:02:00,55.4,50.7,29.32,WNW,288,4.0,14.0,84,0.00,,,0.27,meteohub,2013-01-30 21:02:00,
2013-01-30 16:07:00,55.4,50.7,29.31,NW,313,10.0,12.0,84,0.00,,,0.27,meteohub,2013-01-30 21:07:00,
2013-01-30 16:12:00,55.2,50.5,29.31,SW,215,6.0,14.0,84,0.00,,,0.27,meteohub,2013-01-30 21:12:00,
2013-01-30 16:17:00,55.2,50.5,29.32,NNE,28,2.0,14.0,84,0.00,,,0.27,meteohub,2013-01-30 21:17:00,
2013-01-30 16:22:00,55.0,50.5,29.33,WSW,254,2.0,16.0,85,0.00,,,0.27,meteohub,2013-01-30 21:22:00,
2013-01-30 16:27:00,55.0,50.5,29.31,WSW,258,7.0,16.0,85,0.00,,,0.27,meteohub,2013-01-30 21:27:00,
2013-01-30 16:32:00,55.0,50.5,29.31,SW,215,10.0,16.0,85,0.00,,,0.27,meteohub,2013-01-30 21:32:00,
2013-01-30 16:37:00,55.0,50.5,29.30,WSW,257,1.0,16.0,85,0.00,,,0.27,meteohub,2013-01-30 21:37:00,
2013-01-30 16:42:00,54.9,50.4,29.28,WNW,290,3.0,16.0,85,0.00,,,0.27,meteohub,2013-01-30 21:42:00,
2013-01-30 16:47:00,54.7,50.5,29.28,West,265,1.0,16.0,86,0.00,,,0.27,meteohub,2013-01-30 21:47:00,
2013-01-30 16:52:00,54.7,50.5,29.30,WNW,298,6.0,13.0,86,0.00,,,0.27,meteohub,2013-01-30 21:52:00,
2013-01-30 16:57:00,54.7,50.5,29.29,West,269,5.0,13.0,86,0.00,,,0.27,meteohub,2013-01-30 21:57:00,
2013-01-30 17:02:00,54.5,50.4,29.28,WNW,303,6.0,13.0,86,0.00,,,0.27,meteohub,2013-01-30 22:02:00,
2013-01-30 17:07:00,54.7,50.5,29.28,WSW,258,4.0,13.0,86,0.00,,,0.27,meteohub,2013-01-30 22:07:00,
2013-01-30 17:12:00,54.5,50.4,29.29,SSW,198,3.0,13.0,86,0.00,,,0.27,meteohub,2013-01-30 22:12:00,
2013-01-30 17:17:00,54.3,50.2,29.27,West,259,4.0,13.0,86,0.00,,,0.27,meteohub,2013-01-30 22:17:00,
2013-01-30 17:22:00,54.3,50.2,29.27,West,281,9.0,13.0,86,0.00,,,0.27,meteohub,2013-01-30 22:22:00,
2013-01-30 17:27:00,54.3,50.2,29.28,West,269,2.0,18.0,86,0.00,,,0.27,meteohub,2013-01-30 22:27:00,
2013-01-30 17:32:00,54.3,50.2,29.28,WSW,238,8.0,18.0,86,0.00,,,0.27,meteohub,2013-01-30 22:32:00,
2013-01-30 17:37:00,54.3,50.2,29.26,SSW,207,6.0,18.0,86,0.00,,,0.27,meteohub,2013-01-30 22:37:00,
2013-01-30 17:42:00,54.3,50.5,29.28,West,277,3.0,13.0,87,0.00,,,0.27,meteohub,2013-01-30 22:42:00,
2013-01-30 17:47:00,54.3,50.5,29.26,WSW,240,4.0,13.0,87,0.00,,,0.27,meteohub,2013-01-30 22:47:00,
2013-01-30 17:52:00,54.1,50.4,29.26,WSW,246,4.0,9.0,87,0.00,,,0.27,meteohub,2013-01-30 22:52:00,
2013-01-30 17:57:00,54.1,50.4,29.27,West,276,7.0,12.0,87,0.00,,,0.27,meteohub,2013-01-30 22:57:00,
2013-01-30 18:02:00,54.1,50.4,29.26,West,273,1.0,12.0,87,0.00,,,0.27,meteohub,2013-01-30 23:02:00,
2013-01-30 18:07:00,54.1,50.4,29.26,SW,227,3.0,12.0,87,0.00,,,0.27,meteohub,2013-01-30 23:07:00,
2013-01-30 18:12:00,54.1,50.7,29.26,SW,226,4.0,10.0,88,0.00,,,0.27,meteohub,2013-01-30 23:12:00,
2013-01-30 18:17:00,54.0,50.5,29.26,South,184,3.0,10.0,88,0.00,,,0.27,meteohub,2013-01-30 23:17:00,
2013-01-30 18:22:00,54.0,50.7,29.26,SSW,202,6.0,10.0,89,0.00,,,0.27,meteohub,2013-01-30 23:22:00,
2013-01-30 18:27:00,54.0,50.7,29.25,WSW,241,5.0,10.0,89,0.00,,,0.27,meteohub,2013-01-30 23:27:00,
2013-01-30 18:32:00,54.0,50.7,29.24,SW,236,2.0,12.0,89,0.00,,,0.27,meteohub,2013-01-30 23:32:00,
2013-01-30 18:37:00,54.0,50.7,29.24,SSW,213,6.0,14.0,89,0.00,,,0.27,meteohub,2013-01-30 23:37:00,
2013-01-30 18:42:00,54.0,50.7,29.23,SW,235,7.0,14.0,89,0.00,,,0.27,meteohub,2013-01-30 23:42:00,
2013-01-30 18:47:00,54.0,50.7,29.23,SW,231,1.0,14.0,89,0.00,,,0.27,meteohub,2013-01-30 23:47:00,
2013-01-30 18:52:00,54.0,50.7,29.23,SW,218,4.0,11.0,89,0.00,,,0.27,meteohub,2013-01-30 23:52:00,
2013-01-30 18:57:00,54.0,50.7,29.22,SW,231,4.0,11.0,89,0.00,,,0.27,meteohub,2013-01-30 23:57:00,
2013-01-30 19:02:00,54.0,50.7,29.22,NW,315,2.0,12.0,89,0.00,,,0.27,meteohub,2013-01-31 00:02:00,
2013-01-30 19:07:00,54.1,50.9,29.23,WSW,246,3.0,14.0,89,0.00,,,0.27,meteohub,2013-01-31 00:07:00,
2013-01-30 19:12:00,54.0,51.1,29.21,SW,236,2.0,14.0,90,0.00,,,0.27,meteohub,2013-01-31 00:12:00,
2013-01-30 19:17:00,54.0,51.4,29.22,WSW,243,7.0,13.0,91,0.00,,,0.27,meteohub,2013-01-31 00:17:00,
2013-01-30 19:22:00,53.8,51.3,29.21,SW,232,7.0,13.0,91,0.01,,,0.27,meteohub,2013-01-31 00:22:00,
2013-01-30 19:27:00,53.4,51.1,29.21,WNW,292,3.0,13.0,92,0.01,,,0.28,meteohub,2013-01-31 00:27:00,
2013-01-30 19:32:00,53.2,50.9,29.21,SW,220,1.0,10.0,92,0.03,,,0.30,meteohub,2013-01-31 00:32:00,
2013-01-30 19:37:00,53.2,51.3,29.21,WNW,286,5.0,10.0,93,0.04,,,0.31,meteohub,2013-01-31 00:37:00,
2013-01-30 19:42:00,53.1,51.1,29.20,WSW,244,7.0,10.0,93,0.06,,,0.33,meteohub,2013-01-31 00:42:00,
2013-01-30 19:47:00,53.1,51.1,29.21,NW,313,3.0,10.0,93,0.07,,,0.34,meteohub,2013-01-31 00:47:00,
2013-01-30 19:52:00,53.1,51.1,29.20,NW,323,7.0,11.0,93,0.07,,,0.34,meteohub,2013-01-31 00:52:00,
2013-01-30 19:57:00,53.1,51.1,29.20,West,275,6.0,14.0,93,0.08,,,0.35,meteohub,2013-01-31 00:57:00,
2013-01-30 20:02:00,53.1,51.4,29.20,West,280,4.0,14.0,94,0.10,,,0.37,meteohub,2013-01-31 01:02:00,
2013-01-30 20:07:00,52.9,51.3,29.21,SW,232,5.0,9.0,94,0.10,,,0.37,meteohub,2013-01-31 01:07:00,
2013-01-30 20:12:00,53.1,51.1,29.20,West,270,4.0,12.0,93,0.10,,,0.37,meteohub,2013-01-31 01:12:00,
2013-01-30 20:17:00,53.1,51.1,29.20,SW,227,2.0,12.0,93,0.10,,,0.37,meteohub,2013-01-31 01:17:00,
2013-01-30 20:22:00,53.1,51.1,29.18,NNW,331,4.0,10.0,93,0.09,,,0.37,meteohub,2013-01-31 01:22:00,
2013-01-30 20:27:00,53.1,51.1,29.18,WNW,288,9.0,10.0,93,0.09,,,0.37,meteohub,2013-01-31 01:27:00,
2013-01-30 20:32:00,53.1,51.1,29.19,WNW,303,11.0,14.0,93,0.07,,,0.38,meteohub,2013-01-31 01:32:00,
2013-01-30 20:37:00,53.1,50.7,29.18,West,259,11.0,14.0,92,0.06,,,0.38,meteohub,2013-01-31 01:37:00,
2013-01-30 20:42:00,52.9,50.5,29.17,West,269,13.0,16.0,92,0.05,,,0.38,meteohub,2013-01-31 01:42:00,
2013-01-30 20:48:00,52.9,50.4,29.17,NW,313,8.0,16.0,91,0.05,,,0.39,meteohub,2013-01-31 01:48:00,
2013-01-30 20:53:00,52.7,50.2,29.16,WSW,258,10.0,16.0,91,0.05,,,0.39,meteohub,2013-01-31 01:53:00,
2013-01-30 20:58:00,52.5,50.0,29.16,WNW,300,8.0,16.0,91,0.03,,,0.39,meteohub,2013-01-31 01:58:00,
2013-01-30 21:03:00,52.5,50.0,29.16,NNW,335,4.0,15.0,91,0.02,,,0.39,meteohub,2013-01-31 02:03:00,
2013-01-30 21:09:00,52.5,49.6,29.16,West,281,6.0,15.0,90,0.02,,,0.39,meteohub,2013-01-31 02:09:00,
2013-01-30 21:14:00,52.5,49.5,29.15,WNW,287,6.0,12.0,89,0.02,,,0.39,meteohub,2013-01-31 02:14:00,
2013-01-30 21:19:00,52.5,49.5,29.14,WNW,302,3.0,12.0,89,0.02,,,0.39,meteohub,2013-01-31 02:19:00,
2013-01-30 21:24:00,52.3,48.9,29.15,WNW,296,4.0,11.0,88,0.02,,,0.39,meteohub,2013-01-31 02:24:00,
2013-01-30 21:29:00,52.3,48.9,29.17,West,271,8.0,11.0,88,0.02,,,0.39,meteohub,2013-01-31 02:29:00,
2013-01-30 21:35:00,52.3,48.6,29.17,WNW,285,6.0,12.0,87,0.01,,,0.39,meteohub,2013-01-31 02:35:00,
2013-01-30 21:40:00,52.3,48.6,29.16,West,276,5.0,12.0,87,0.01,,,0.39,meteohub,2013-01-31 02:40:00,
2013-01-30 21:45:00,52.3,48.0,29.16,WNW,298,5.0,11.0,85,0.00,,,0.39,meteohub,2013-01-31 02:45:00,
2013-01-30 21:50:00,52.3,48.0,29.17,NW,305,4.0,17.0,85,0.00,,,0.39,meteohub,2013-01-31 02:50:00,
2013-01-30 21:55:00,52.3,47.7,29.17,WNW,288,8.0,17.0,84,0.00,,,0.39,meteohub,2013-01-31 02:55:00,
2013-01-30 22:00:00,52.2,47.5,29.17,NW,314,4.0,15.0,84,0.00,,,0.39,meteohub,2013-01-31 03:00:00,
2013-01-30 22:06:00,52.2,47.5,29.17,NW,311,3.0,11.0,84,0.00,,,0.39,meteohub,2013-01-31 03:06:00,
2013-01-30 22:11:00,52.2,47.5,29.17,NW,310,5.0,12.0,84,0.00,,,0.39,meteohub,2013-01-31 03:11:00,
2013-01-30 22:16:00,51.6,45.3,29.20,NNW,343,8.0,12.0,79,0.00,,,0.39,meteohub,2013-01-31 03:16:00,
2013-01-30 22:21:00,45.7,38.3,29.18,NNW,343,12.0,27.0,75,0.00,,,0.39,meteohub,2013-01-31 03:21:00,
2013-01-30 22:26:00,42.6,37.2,29.18,NNW,338,14.0,27.0,81,0.00,,,0.39,meteohub,2013-01-31 03:26:00,
2013-01-30 22:31:00,41.4,36.5,29.18,NNW,346,15.0,27.0,83,0.00,,,0.39,meteohub,2013-01-31 03:31:00,
2013-01-30 22:36:00,40.3,35.8,29.18,NNW,332,19.0,27.0,84,0.00,,,0.39,meteohub,2013-01-31 03:36:00,
2013-01-30 22:41:00,39.4,35.6,29.19,North,5,11.0,26.0,86,0.00,,,0.39,meteohub,2013-01-31 03:41:00,
2013-01-30 22:46:00,38.5,34.9,29.20,NW,319,9.0,26.0,87,0.00,,,0.39,meteohub,2013-01-31 03:46:00,
2013-01-30 22:52:00,37.6,34.7,29.22,NW,322,10.0,22.0,89,0.00,,,0.39,meteohub,2013-01-31 03:52:00,
2013-01-30 22:57:00,36.9,34.5,29.22,NNW,329,10.0,22.0,91,0.02,,,0.41,meteohub,2013-01-31 03:57:00,
2013-01-30 23:02:00,36.5,34.3,29.23,WNW,292,9.0,22.0,92,0.02,,,0.41,meteohub,2013-01-31 04:02:00,
2013-01-30 23:07:00,36.9,34.7,29.23,NNW,331,11.0,23.0,92,0.02,,,0.41,meteohub,2013-01-31 04:07:00,
2013-01-30 23:12:00,37.0,34.7,29.21,NW,314,14.0,26.0,91,0.03,,,0.42,meteohub,2013-01-31 04:12:00,
2013-01-30 23:17:00,37.2,34.3,29.21,North,351,11.0,26.0,89,0.03,,,0.42,meteohub,2013-01-31 04:17:00,
2013-01-30 23:22:00,37.2,34.0,29.22,NNW,331,11.0,33.0,88,0.04,,,0.43,meteohub,2013-01-31 04:22:00,
2013-01-30 23:27:00,36.7,33.4,29.21,NW,310,14.0,33.0,88,0.04,,,0.43,meteohub,2013-01-31 04:27:00,
2013-01-30 23:32:00,36.3,33.1,29.22,NW,304,16.0,33.0,88,0.04,,,0.43,meteohub,2013-01-31 04:32:00,
2013-01-30 23:37:00,36.1,32.9,29.22,NW,318,9.0,23.0,88,0.04,,,0.43,meteohub,2013-01-31 04:37:00,
2013-01-30 23:42:00,36.1,32.9,29.22,NW,305,13.0,20.0,88,0.04,,,0.43,meteohub,2013-01-31 04:42:00,
2013-01-30 23:47:00,36.1,32.7,29.23,NNW,346,11.0,20.0,87,0.04,,,0.43,meteohub,2013-01-31 04:47:00,
2013-01-30 23:52:00,36.1,32.4,29.23,NNW,332,13.0,19.0,86,0.04,,,0.43,meteohub,2013-01-31 04:52:00,
2013-01-30 23:57:00,36.3,32.2,29.23,NW,306,9.0,21.0,85,0.02,,,0.43,meteohub,2013-01-31 04:57:00,